This demonstration page uses our WeatherBlox Daily Observations layout. Learn more.

Left ArrowRight Arrow

39.51506, -84.39828

Hourly Observations for September 24, 2020

Temp ( °F °C ) Dew Point ( °F °C ) Humidity (%) Winds ( mph kmh ) Pressure ( in mb ) Visibility ( mi km ) Precip ( " mm )
12:15 am 00:15 Clear 59 15.2 57 14 93 93 Calm 30.06 1018 10 16.0934 0 0
12:35 am 00:35 Clear 59 15.1 58 14.2 94 94 Calm 30.05 1017 10 16.0934 0 0
12:55 am 00:55 Clear 59 15 57 13.9 93 93 Calm 30.05 1017 10 16.0934 0 0
1:15 am 01:15 Clear 59 14.9 57 13.9 94 94 Calm 30.05 1017 10 16.0934 0 0
1:35 am 01:35 Clear 58 14.5 57 13.7 95 95 Calm 30.05 1018 10 16.0934 0 0
1:55 am 01:55 Clear 58 14.5 57 13.7 95 95 Calm 30.05 1018 10 16.0934 0 0
2:15 am 02:15 Clear 59 14.8 57 13.9 94 94 Calm 30.05 1018 10 16.0934 0 0
2:35 am 02:35 Clear 57 13.9 56 13.4 97 97 Calm 30.04 1017 10 16.0934 0 0
2:55 am 02:55 Clear 58 14.4 57 13.7 96 96 Calm 30.04 1017 10 16.0934 0 0
3:15 am 03:15 Clear 58 14.3 56 13.6 96 96 Calm 30.04 1017 10 16.0934 0 0
3:35 am 03:35 Clear 57 14.1 57 13.7 97 97 Calm 30.04 1017 10 16.0934 0 0
3:55 am 03:55 Clear 57 13.8 56 13.4 97 97 Calm 30.05 1018 10 16.0934 0 0
4:15 am 04:15 Clear 58 14.2 56 13.5 96 96 Calm 30.04 1017 10 16.0934 0 0
4:35 am 04:35 Clear 58 14.4 57 13.9 97 97 Calm 30.04 1017 10 16.0934 0 0
4:55 am 04:55 Clear 57 13.8 56 13.4 97 97 Calm 30.04 1017 10 16.0934 0 0
5:15 am 05:15 Clear 57 13.8 56 13.4 97 97 Calm 30.04 1017 10 16.0934 0 0
5:35 am 05:35 Clear 56 13.6 56 13.2 97 97 Calm 30.03 1017 10 16.0934 0 0
5:55 am 05:55 Clear 56 13.5 56 13.3 99 99 Calm 30.03 1017 10 16.0934 0 0
6:15 am 06:15 Clear 57 13.8 56 13.5 98 98 Calm 30.03 1017 10 16.0934 0 0
6:35 am 06:35 Clear 56 13.5 56 13.4 99 99 Calm 30.04 1017 10 16.0934 0 0
6:55 am 06:55 Clear 55 13 55 13 100 100 Calm 30.04 1017 7 11.26538 0 0
7:15 am 07:15 Clear 54 12 N/A N/A Calm 30.04 1017 7 11.26538 0 0
7:35 am 07:35 Sunny 54 12 N/A N/A Calm 30.05 1018 10 16.0934 0 0
7:55 am 07:55 Sunny 55 13 N/A N/A Calm 30.05 1018 10 16.0934 0 0
8:15 am 08:15 Sunny 56 13.1 55 13 99 99 Calm 30.05 1018 10 16.0934 0 0
8:35 am 08:35 Sunny 56 13.5 56 13.3 99 99 Calm 30.05 1018 10 16.0934 0 0
8:55 am 08:55 Sunny 59 15 57 14.1 94 94 Calm 30.06 1018 10 16.0934 0 0
9:15 am 09:15 Sunny 60 15.5 57 14 91 91 Calm 30.06 1018 10 16.0934 0 0
9:35 am 09:35 Sunny 62 16.4 57 14.1 86 86 Calm 30.06 1018 10 16.0934 0 0
9:55 am 09:55 Sunny 63 17.2 55 12.7 75 75 Calm 30.06 1018 10 16.0934 0 0
10:15 am 10:15 Sunny 65 18.5 56 13.1 71 71 Calm 30.06 1018 10 16.0934 0 0
10:35 am 10:35 Sunny 66 18.7 56 13.4 71 71 Calm 30.06 1018 10 16.0934 0 0
10:55 am 10:55 Sunny 69 20.3 56 13.5 65 65 Calm 30.04 1017 10 16.0934 0 0
11:15 am 11:15 Sunny 69 20.7 55 13 62 62 Calm 30.04 1017 10 16.0934 0 0
11:35 am 11:35 Sunny 71 21.4 55 12.5 57 57 Calm 30.04 1017 10 16.0934 0 0
11:55 am 11:55 Sunny 72 22.3 53 11.8 52 52 WSW 3 6 30.03 1017 10 16.0934 0 0
12:15 pm 12:15 Sunny 73 22.9 52 11 47 47 S 5 7 30.03 1017 10 16.0934 0 0
12:35 pm 12:35 Sunny 74 23.1 51 10.6 45 45 Calm 30.02 1017 10 16.0934 0 0
12:55 pm 12:55 Sunny 75 23.9 51 10.8 44 44 SSE 9 15 30.01 1016 10 16.0934 0 0
1:15 pm 13:15 Sunny 75 24 52 11.2 45 45 SSW 5 7 30.01 1016 10 16.0934 0 0
1:35 pm 13:35 Sunny 76 24.4 52 11 43 43 WSW 6 9 30 1016 10 16.0934 0 0
1:55 pm 13:55 Sunny 76 24.7 51 10.8 42 42 WSW 7 11 29.99 1016 10 16.0934 0 0
2:15 pm 14:15 Sunny 77 25.1 53 11.6 43 43 SW 7 11 29.98 1015 10 16.0934 0 0
2:35 pm 14:35 Sunny 78 25.3 52 10.9 40 40 SW 7 11 29.97 1015 10 16.0934 0 0
2:55 pm 14:55 Sunny 78 25.3 51 10.3 39 39 WSW 6 9 29.97 1015 10 16.0934 0 0
3:15 pm 15:15 Sunny 78 25.8 50 10.1 37 37 W 5 7 29.96 1015 10 16.0934 0 0
3:35 pm 15:35 Sunny 79 26.1 51 10.3 37 37 SW 9 15 29.96 1015 10 16.0934 0 0
3:55 pm 15:55 Sunny 79 25.9 49 9.7 36 36 SW 9 15 29.95 1014 10 16.0934 0 0
4:15 pm 16:15 Sunny 78 25.8 51 10.7 39 39 SW 6 9 29.95 1014 10 16.0934 0 0
4:35 pm 16:35 Sunny 79 25.9 52 11 39 39 SW 9 15 29.95 1014 10 16.0934 0 0
4:55 pm 16:55 Sunny 79 25.9 51 10.3 38 38 SSW 9 15 29.95 1014 10 16.0934 0 0
5:15 pm 17:15 Sunny 78 25.5 49 9.6 37 37 SW 7 11 29.95 1014 10 16.0934 0 0
5:35 pm 17:35 Sunny 77 25.1 50 10.2 39 39 WSW 3 6 29.95 1014 10 16.0934 0 0
5:55 pm 17:55 Sunny 77 25.1 51 10.5 40 40 SSW 9 15 29.95 1014 10 16.0934 0 0
6:15 pm 18:15 Sunny 76 24.7 51 10.6 41 41 S 6 9 29.95 1014 10 16.0934 0 0
6:35 pm 18:35 Sunny 76 24.2 51 10.6 42 42 S 6 9 29.95 1014 10 16.0934 0 0
6:55 pm 18:55 Sunny 74 23.6 51 10.8 45 45 SSW 6 9 29.97 1015 10 16.0934 0 0
7:15 pm 19:15 Sunny 73 23 53 11.4 48 48 S 3 6 29.97 1015 10 16.0934 0 0
7:35 pm 19:35 Clear 69 20.8 53 11.7 56 56 Calm 29.97 1015 10 16.0934 0 0
7:55 pm 19:55 Clear 66 18.7 54 12.3 67 67 Calm 29.98 1015 10 16.0934 0 0
8:15 pm 20:15 Clear 63 17.2 54 12.4 74 74 Calm 29.98 1015 10 16.0934 0 0
8:35 pm 20:35 Clear 63 17 54 12.4 74 74 Calm 29.98 1015 10 16.0934 0 0
8:55 pm 20:55 Clear 61 15.9 55 12.5 80 80 Calm 29.99 1016 10 16.0934 0 0
9:15 pm 21:15 Clear 60 15.6 54 12.2 80 80 Calm 30 1016 10 16.0934 0 0
9:35 pm 21:35 Clear 60 15.6 55 12.6 82 82 Calm 30 1016 10 16.0934 0 0
9:55 pm 21:55 Clear 59 15.1 55 12.5 85 85 Calm 30 1016 10 16.0934 0 0
10:15 pm 22:15 Clear 59 15 55 12.6 86 86 Calm 30 1016 10 16.0934 0 0
10:35 pm 22:35 Clear 58 14.5 54 12.4 87 87 Calm 30.01 1016 10 16.0934 0 0
10:55 pm 22:55 Clear 58 14.2 55 12.5 90 90 Calm 30.01 1016 10 16.0934 0 0
11:15 pm 23:15 Clear 57 14.1 55 12.6 91 91 Calm 30.01 1016 10 16.0934 0 0
11:35 pm 23:35 Clear 56 13.5 54 12.4 93 93 Calm 30.01 1016 10 16.0934 0 0
11:55 pm 23:55 Clear 54 12.2 52 11.3 94 94 Calm 30.01 1016 10 16.0934 0 0

Powered by AerisWeather